Regional Weather Roundup
Issued by NWS Jackson, KY

Home | Current Version | Previous Version | Text Only | Print | Product List | Glossary Off
Versions: 1 2 3 4 5 6 7 8 9 10 11 12 13 14 15 16 17 18 19 20 21 22 23 24 25 26 27 28 29 30 31 32 33 34 35 36 37 38 39 40 41 42 43 44 45 46 47 48 49 50

000
ASUS43 KJKL 021410
RWRJKL

EAST KENTUCKY HOURLY WEATHER ROUNDUP
NATIONAL WEATHER SERVICE JACKSON KY
1000 AM EDT SUN AUG 02 2015

NOTE: "FAIR" INDICATES FEW OR NO CLOUDS BELOW 12,000 FEET WITH
NO SIGNIFICANT WEATHER AND/OR OBSTRUCTIONS TO VISIBILITY.

* THESE REPORTS ARE NOT UNDER NWS QUALITY CONTROL AND MAY NOT
  REPORT WEATHER SUCH AS PRECIPITATION AND FOG.

KYZ079-080-083-085-087-088-110-112-115-119-120-021500
...EASTERN KENTUCKY...

CITY           SKY/WX    TMP DP  RH WIND       PRES   REMARKS
JACKSON        PTSUNNY   69  63  81 CALM      30.06R
LONDON         MOSUNNY   72  61  68 CALM      30.05R
SOMERSET*      SUNNY     72  61  68 SE3       30.05S
MONTICELLO*    SUNNY     76  65  68 CALM      30.06S
WILLIAMSBURG*  SUNNY     68  68 100 CALM      30.05R
MIDDLESBORO*   CLOUDY    63  62  97 CALM      30.07S
HAZARD APT*    SUNNY     68  66  94 CALM      30.06R
BLACK MTN*       N/A     66  55  68 S2          N/A
PIKEVILLE APT* SUNNY     64  63  94 CALM      30.07R
BIG SANDY*     PTSUNNY   70  64  81 CALM      30.05S
MOREHEAD APT*  PTSUNNY   72  64  78 CALM      30.05S
$$

KYZ035-036-041-042-044-050-067-078-099-021500
...CENTRAL KENTUCKY...

CITY           SKY/WX    TMP DP  RH WIND       PRES   REMARKS
MT STERLING*   MOSUNNY   77  63  61 S3        30.04S
FLEMING/MASON* SUNNY     73  64  73 CALM      30.04R
DANVILLE*      SUNNY     73  61  64 SE5       30.05S
RICHMOND*      SUNNY     75  61  60 SE3       30.03S
LEXINGTON      SUNNY     76  63  64 S6        30.03R
FRANKFORT      SUNNY     75  63  66 VRB3      30.01S
$$

KYZ091>093-OHZ055-061-077-WVZ005-015-034-035-042-021500
...SOUTHERN OHIO/WEST VIRGINIA...

CITY           SKY/WX    TMP DP  RH WIND       PRES   REMARKS
COVINGTON      SUNNY     77  60  55 SW3       30.01R
COLUMBUS       MOSUNNY   77  60  55 SW7       29.97F
DAYTON         MOSUNNY   77  61  57 SW10      30.00S
WILMINGTON     SUNNY     77  59  53 W8        30.00S
HUNTINGTON     PTSUNNY   72  65  78 CALM      30.02R
CHARLESTON     MOSUNNY   72  62  71 CALM      30.03S
PINEVILLE*     PTSUNNY   66  64  93 MISG      30.13S
BECKLEY        PTSUNNY   68  57  68 S3        30.11R
BLUEFIELD      PTSUNNY   70  55  59 VRB3      30.12R
$$

VAZ002-007-008-TNZ017-027-036-066-071-021500
...SOUTHWEST VIRGINIA/EAST TENNESSEE...

CITY           SKY/WX    TMP DP  RH WIND       PRES   REMARKS
WISE*          MOSUNNY   73  52  46 E5        30.12S
ABINGDON*      SUNNY     75  60  59 E3        30.09S
BRISTOL        MOSUNNY   72  63  73 CALM      30.06S
KNOXVILLE      MOSUNNY   75  64  68 NE5       30.01R
OAK RIDGE      SUNNY     77  63  61 NE6       30.03S
CROSSVILLE     SUNNY     74  61  63 NE5       30.07R
NASHVILLE      MOSUNNY   77  65  66 CALM      30.02R
$$

...KEY TO REMARKS...
VSB - VISIBILITY IN MILES
WCI - WIND CHILL INDEX
HX  - HEAT INDEX

$$



USA.gov is the U.S. government's official web portal to all federal, state and local government web resources and services.